Time,TemperatureF,DewpointF,PressureIn,WindDirection,WindDirectionDegrees,WindSpeedMPH,WindSpeedGustMPH,Humidity,HourlyPrecipIn,Conditions,Clouds,dailyrainin,SoftwareType,DateUTC
2013-02-01 00:01:00,51.0,-99.9,30.19,West,276,4.0,6.0,-999,-99.99,,,-99.99,,2013-02-01 08:01:00,
2013-02-01 00:11:00,51.0,-99.9,30.19,West,269,3.0,4.0,-999,-99.99,,,-99.99,,2013-02-01 08:11:00,
2013-02-01 00:22:00,51.0,-99.9,30.19,West,267,3.0,5.0,-999,-99.99,,,-99.99,,2013-02-01 08:22:00,
2013-02-01 00:32:00,51.0,-99.9,30.19,West,273,3.0,4.0,-999,-99.99,,,-99.99,,2013-02-01 08:32:00,
2013-02-01 00:42:00,51.0,-99.9,30.19,NW,307,1.0,3.0,-999,-99.99,,,-99.99,,2013-02-01 08:42:00,
2013-02-01 00:52:00,51.0,-99.9,30.19,WNW,283,-999.0,1.0,-999,-99.99,,,-99.99,,2013-02-01 08:52:00,
2013-02-01 01:02:00,51.0,-99.9,30.19,ESE,120,2.0,2.0,-999,-99.99,,,-99.99,,2013-02-01 09:02:00,
2013-02-01 01:11:00,51.0,-99.9,30.19,SE,127,1.0,2.0,-999,-99.99,,,-99.99,,2013-02-01 09:11:00,
2013-02-01 01:22:00,51.0,-99.9,30.19,SE,130,0.0,2.0,-999,-99.99,,,-99.99,,2013-02-01 09:22:00,
2013-02-01 01:32:00,51.0,-99.9,30.19,South,186,-999.0,1.0,-999,-99.99,,,-99.99,,2013-02-01 09:32:00,
2013-02-01 01:42:00,51.0,-99.9,30.19,North,-999,-999.0,-999.0,-999,-99.99,,,-99.99,,2013-02-01 09:42:00,
2013-02-01 01:52:00,50.0,-99.9,30.19,North,-999,-999.0,-999.0,-999,-99.99,,,-99.99,,2013-02-01 09:52:00,
2013-02-01 02:01:00,49.0,-99.9,30.19,West,281,2.0,2.0,-999,-99.99,,,-99.99,,2013-02-01 10:01:00,
2013-02-01 02:11:00,49.0,-99.9,30.19,West,273,2.0,3.0,-999,-99.99,,,-99.99,,2013-02-01 10:11:00,
2013-02-01 02:21:00,50.0,-99.9,30.18,West,261,2.0,2.0,-999,-99.99,,,-99.99,,2013-02-01 10:21:00,
2013-02-01 02:32:00,49.0,-99.9,30.18,North,-999,-999.0,-999.0,-999,-99.99,,,-99.99,,2013-02-01 10:32:00,
2013-02-01 02:43:00,49.0,-99.9,30.18,North,-999,-999.0,-999.0,-999,-99.99,,,-99.99,,2013-02-01 10:43:00,
2013-02-01 02:53:00,50.0,-99.9,30.18,North,-999,-999.0,-999.0,-999,-99.99,,,-99.99,,2013-02-01 10:53:00,
2013-02-01 03:02:00,50.0,-99.9,30.18,SE,141,1.0,2.0,-999,-99.99,,,-99.99,,2013-02-01 11:02:00,
2013-02-01 03:11:00,51.0,-99.9,30.18,WNW,289,1.0,2.0,-999,-99.99,,,-99.99,,2013-02-01 11:11:00,
2013-02-01 03:22:00,50.0,-99.9,30.18,WNW,289,-999.0,1.0,-999,-99.99,,,-99.99,,2013-02-01 11:22:00,
2013-02-01 03:32:00,51.0,-99.9,30.18,ENE,70,-999.0,1.0,-999,-99.99,,,-99.99,,2013-02-01 11:32:00,
2013-02-01 03:42:00,51.0,-99.9,30.18,WNW,295,0.0,1.0,-999,-99.99,,,-99.99,,2013-02-01 11:42:00,
2013-02-01 03:53:00,51.0,-99.9,30.17,West,272,1.0,2.0,-999,-99.99,,,-99.99,,2013-02-01 11:53:00,
2013-02-01 04:03:00,51.0,-99.9,30.18,SSW,198,0.0,1.0,-999,-99.99,,,-99.99,,2013-02-01 12:03:00,
2013-02-01 04:12:00,51.0,-99.9,30.18,SW,218,1.0,8.0,-999,-99.99,,,-99.99,,2013-02-01 12:12:00,
2013-02-01 04:23:00,51.0,-99.9,30.18,North,353,3.0,4.0,-999,-99.99,,,-99.99,,2013-02-01 12:23:00,
2013-02-01 04:32:00,50.0,-99.9,30.18,West,268,0.0,1.0,-999,-99.99,,,-99.99,,2013-02-01 12:32:00,
2013-02-01 04:42:00,49.0,-99.9,30.18,West,272,4.0,4.0,-999,-99.99,,,-99.99,,2013-02-01 12:42:00,
2013-02-01 04:52:00,50.0,-99.9,30.18,West,269,3.0,4.0,-999,-99.99,,,-99.99,,2013-02-01 12:52:00,
2013-02-01 05:02:00,49.0,-99.9,30.18,SW,233,1.0,2.0,-999,-99.99,,,-99.99,,2013-02-01 13:02:00,
2013-02-01 05:12:00,49.0,-99.9,30.18,WSW,254,-999.0,2.0,-999,-99.99,,,-99.99,,2013-02-01 13:12:00,
2013-02-01 05:22:00,48.0,-99.9,30.18,WNW,286,-999.0,1.0,-999,-99.99,,,-99.99,,2013-02-01 13:22:00,
2013-02-01 05:33:00,48.0,-99.9,30.17,North,-999,-999.0,-999.0,-999,-99.99,,,-99.99,,2013-02-01 13:33:00,
2013-02-01 05:43:00,48.0,-99.9,30.17,North,-999,-999.0,-999.0,-999,-99.99,,,-99.99,,2013-02-01 13:43:00,
2013-02-01 05:53:00,48.0,-99.9,30.17,WNW,286,1.0,1.0,-999,-99.99,,,-99.99,,2013-02-01 13:53:00,
2013-02-01 06:03:00,48.0,-99.9,30.17,WNW,286,-999.0,1.0,-999,-99.99,,,-99.99,,2013-02-01 14:03:00,
2013-02-01 06:12:00,48.0,-99.9,30.17,North,-999,-999.0,-999.0,-999,-99.99,,,-99.99,,2013-02-01 14:12:00,
2013-02-01 06:22:00,48.0,-99.9,30.17,WNW,286,-999.0,1.0,-999,-99.99,,,-99.99,,2013-02-01 14:22:00,
2013-02-01 06:33:00,49.0,-99.9,30.17,WNW,286,-999.0,1.0,-999,-99.99,,,-99.99,,2013-02-01 14:33:00,
2013-02-01 06:42:00,49.0,-99.9,30.17,North,-999,-999.0,-999.0,-999,-99.99,,,-99.99,,2013-02-01 14:42:00,
2013-02-01 06:53:00,51.0,-99.9,30.17,West,269,3.0,4.0,-999,-99.99,,,-99.99,,2013-02-01 14:53:00,
2013-02-01 07:03:00,52.0,-99.9,30.17,West,262,1.0,3.0,-999,-99.99,,,-99.99,,2013-02-01 15:03:00,
2013-02-01 07:12:00,51.0,-99.9,30.17,West,280,-999.0,0.0,-999,-99.99,,,-99.99,,2013-02-01 15:12:00,
2013-02-01 07:22:00,51.0,-99.9,30.17,North,-999,-999.0,-999.0,-999,-99.99,,,-99.99,,2013-02-01 15:22:00,
2013-02-01 07:33:00,51.0,-99.9,30.17,West,274,1.0,2.0,-999,-99.99,,,-99.99,,2013-02-01 15:33:00,
2013-02-01 07:42:00,51.0,-99.9,30.17,West,278,1.0,1.0,-999,-99.99,,,-99.99,,2013-02-01 15:42:00,
2013-02-01 07:52:00,51.0,-99.9,30.17,SW,224,1.0,2.0,-999,-99.99,,,-99.99,,2013-02-01 15:52:00,
2013-02-01 08:03:00,52.0,-99.9,30.18,SSE,165,1.0,3.0,-999,-99.99,,,-99.99,,2013-02-01 16:03:00,
2013-02-01 08:12:00,53.0,-99.9,30.18,South,186,3.0,4.0,-999,-99.99,,,-99.99,,2013-02-01 16:12:00,
2013-02-01 08:22:00,54.0,-99.9,30.18,WSW,237,0.0,2.0,-999,-99.99,,,-99.99,,2013-02-01 16:22:00,
2013-02-01 08:33:00,54.0,-99.9,30.18,West,275,1.0,2.0,-999,-99.99,,,-99.99,,2013-02-01 16:33:00,
2013-02-01 08:43:00,55.0,-99.9,30.18,SSW,194,4.0,6.0,-999,-99.99,,,-99.99,,2013-02-01 16:43:00,
2013-02-01 08:53:00,54.0,-99.9,30.18,SSW,203,4.0,6.0,-999,-99.99,,,-99.99,,2013-02-01 16:53:00,
2013-02-01 09:03:00,55.0,-99.9,30.18,North,349,2.0,4.0,-999,-99.99,,,-99.99,,2013-02-01 17:03:00,
2013-02-01 09:12:00,54.0,-99.9,30.18,WNW,283,4.0,4.0,-999,-99.99,,,-99.99,,2013-02-01 17:12:00,
2013-02-01 09:22:00,54.0,-99.9,30.18,West,279,3.0,4.0,-999,-99.99,,,-99.99,,2013-02-01 17:22:00,
2013-02-01 09:32:00,57.0,-99.9,30.18,NNW,335,1.0,2.0,-999,-99.99,,,-99.99,,2013-02-01 17:32:00,
2013-02-01 09:42:00,59.0,-99.9,30.18,NW,318,1.0,2.0,-999,-99.99,,,-99.99,,2013-02-01 17:42:00,
2013-02-01 09:53:00,60.0,-99.9,30.18,ESE,109,0.0,1.0,-999,-99.99,,,-99.99,,2013-02-01 17:53:00,
2013-02-01 10:03:00,60.0,-99.9,30.18,WSW,252,0.0,1.0,-999,-99.99,,,-99.99,,2013-02-01 18:03:00,
2013-02-01 10:12:00,59.0,-99.9,30.19,NW,319,1.0,2.0,-999,-99.99,,,-99.99,,2013-02-01 18:12:00,
2013-02-01 10:23:00,60.0,-99.9,30.19,West,272,0.0,2.0,-999,-99.99,,,-99.99,,2013-02-01 18:23:00,
2013-02-01 10:33:00,59.0,-99.9,30.19,WNW,289,1.0,1.0,-999,-99.99,,,-99.99,,2013-02-01 18:33:00,
2013-02-01 10:42:00,59.0,-99.9,30.19,WNW,288,0.0,1.0,-999,-99.99,,,-99.99,,2013-02-01 18:42:00,
2013-02-01 10:53:00,60.0,-99.9,30.19,West,268,0.0,1.0,-999,-99.99,,,-99.99,,2013-02-01 18:53:00,
2013-02-01 11:03:00,60.0,-99.9,30.19,NW,305,2.0,2.0,-999,-99.99,,,-99.99,,2013-02-01 19:03:00,
2013-02-01 11:12:00,62.0,-99.9,30.19,NW,309,-999.0,1.0,-999,-99.99,,,-99.99,,2013-02-01 19:12:00,
2013-02-01 11:22:00,63.0,-99.9,30.19,SE,133,0.0,1.0,-999,-99.99,,,-99.99,,2013-02-01 19:22:00,
2013-02-01 11:33:00,63.0,-99.9,30.19,NW,307,-999.0,1.0,-999,-99.99,,,-99.99,,2013-02-01 19:33:00,
2013-02-01 11:42:00,61.0,-99.9,30.19,South,182,-999.0,5.0,-999,-99.99,,,-99.99,,2013-02-01 19:42:00,
2013-02-01 11:52:00,60.0,-99.9,30.19,South,185,4.0,5.0,-999,-99.99,,,-99.99,,2013-02-01 19:52:00,
2013-02-01 12:02:00,61.0,-99.9,30.18,SE,144,2.0,3.0,-999,-99.99,,,-99.99,,2013-02-01 20:02:00,
2013-02-01 12:12:00,61.0,-99.9,30.18,SSE,168,4.0,5.0,-999,-99.99,,,-99.99,,2013-02-01 20:12:00,
2013-02-01 12:22:00,61.0,-99.9,30.17,SE,146,3.0,4.0,-999,-99.99,,,-99.99,,2013-02-01 20:22:00,
2013-02-01 12:32:00,61.0,-99.9,30.16,SE,127,3.0,6.0,-999,-99.99,,,-99.99,,2013-02-01 20:32:00,
2013-02-01 12:42:00,62.0,-99.9,30.16,East,84,-999.0,2.0,-999,-99.99,,,-99.99,,2013-02-01 20:42:00,
2013-02-01 12:52:00,62.0,-99.9,30.15,NNW,340,1.0,2.0,-999,-99.99,,,-99.99,,2013-02-01 20:52:00,
2013-02-01 13:02:00,62.0,-99.9,30.15,WSW,255,2.0,2.0,-999,-99.99,,,-99.99,,2013-02-01 21:02:00,
2013-02-01 13:12:00,63.0,-99.9,30.15,East,92,-999.0,1.0,-999,-99.99,,,-99.99,,2013-02-01 21:12:00,
2013-02-01 13:22:00,63.0,-99.9,30.14,NE,48,0.0,1.0,-999,-99.99,,,-99.99,,2013-02-01 21:22:00,
2013-02-01 13:32:00,63.0,-99.9,30.14,WNW,283,1.0,2.0,-999,-99.99,,,-99.99,,2013-02-01 21:32:00,
2013-02-01 13:42:00,63.0,-99.9,30.14,NNW,342,-999.0,1.0,-999,-99.99,,,-99.99,,2013-02-01 21:42:00,
2013-02-01 13:53:00,64.0,-99.9,30.14,ESE,113,0.0,1.0,-999,-99.99,,,-99.99,,2013-02-01 21:53:00,
2013-02-01 14:03:00,62.0,-99.9,30.14,South,189,4.0,7.0,-999,-99.99,,,-99.99,,2013-02-01 22:03:00,
2013-02-01 14:11:00,63.0,-99.9,30.14,SE,138,2.0,2.0,-999,-99.99,,,-99.99,,2013-02-01 22:11:00,
2013-02-01 14:22:00,63.0,-99.9,30.13,SE,125,1.0,2.0,-999,-99.99,,,-99.99,,2013-02-01 22:22:00,
2013-02-01 14:32:00,63.0,-99.9,30.13,South,190,3.0,6.0,-999,-99.99,,,-99.99,,2013-02-01 22:32:00,
2013-02-01 14:42:00,63.0,-99.9,30.14,WNW,292,1.0,2.0,-999,-99.99,,,-99.99,,2013-02-01 22:42:00,
2013-02-01 14:52:00,62.0,-99.9,30.14,WNW,286,2.0,2.0,-999,-99.99,,,-99.99,,2013-02-01 22:52:00,
2013-02-01 15:02:00,62.0,-99.9,30.14,West,277,-999.0,3.0,-999,-99.99,,,-99.99,,2013-02-01 23:02:00,
2013-02-01 15:11:00,61.0,-99.9,30.13,West,268,5.0,6.0,-999,-99.99,,,-99.99,,2013-02-01 23:11:00,
2013-02-01 15:22:00,61.0,-99.9,30.13,West,264,6.0,8.0,-999,-99.99,,,-99.99,,2013-02-01 23:22:00,
2013-02-01 15:32:00,63.0,-99.9,30.13,WSW,254,2.0,5.0,-999,-99.99,,,-99.99,,2013-02-01 23:32:00,
2013-02-01 15:42:00,63.0,-99.9,30.13,WNW,290,1.0,2.0,-999,-99.99,,,-99.99,,2013-02-01 23:42:00,
2013-02-01 15:52:00,61.0,-99.9,30.13,NNW,335,0.0,3.0,-999,-99.99,,,-99.99,,2013-02-01 23:52:00,
2013-02-01 16:02:00,61.0,-99.9,30.13,ENE,70,1.0,2.0,-999,-99.99,,,-99.99,,2013-02-02 00:02:00,
2013-02-01 16:11:00,61.0,-99.9,30.13,SE,140,0.0,1.0,-999,-99.99,,,-99.99,,2013-02-02 00:11:00,
2013-02-01 16:22:00,61.0,-99.9,30.13,SW,227,-999.0,2.0,-999,-99.99,,,-99.99,,2013-02-02 00:22:00,
2013-02-01 16:32:00,60.0,-99.9,30.13,SSW,196,1.0,3.0,-999,-99.99,,,-99.99,,2013-02-02 00:32:00,
2013-02-01 16:42:00,60.0,-99.9,30.13,NW,310,-999.0,1.0,-999,-99.99,,,-99.99,,2013-02-02 00:42:00,
2013-02-01 16:52:00,59.0,-99.9,30.13,SW,228,2.0,2.0,-999,-99.99,,,-99.99,,2013-02-02 00:52:00,
2013-02-01 17:03:00,59.0,-99.9,30.13,SW,236,-999.0,1.0,-999,-99.99,,,-99.99,,2013-02-02 01:03:00,
2013-02-01 17:11:00,59.0,-99.9,30.14,SSE,165,-999.0,2.0,-999,-99.99,,,-99.99,,2013-02-02 01:11:00,
2013-02-01 17:22:00,60.0,-99.9,30.14,SSW,196,4.0,5.0,-999,-99.99,,,-99.99,,2013-02-02 01:22:00,
2013-02-01 17:32:00,61.0,-99.9,30.14,SSW,203,5.0,6.0,-999,-99.99,,,-99.99,,2013-02-02 01:32:00,
2013-02-01 17:42:00,60.0,-99.9,30.15,South,188,2.0,6.0,-999,-99.99,,,-99.99,,2013-02-02 01:42:00,
2013-02-01 17:52:00,60.0,-99.9,30.15,SSW,198,2.0,4.0,-999,-99.99,,,-99.99,,2013-02-02 01:52:00,
2013-02-01 18:01:00,57.0,-99.9,30.15,NE,49,0.0,4.0,-999,-99.99,,,-99.99,,2013-02-02 02:01:00,
2013-02-01 18:11:00,57.0,-99.9,30.16,North,-999,-999.0,-999.0,-999,-99.99,,,-99.99,,2013-02-02 02:11:00,
2013-02-01 18:22:00,57.0,-99.9,30.16,SSW,210,4.0,6.0,-999,-99.99,,,-99.99,,2013-02-02 02:22:00,
2013-02-01 18:32:00,56.0,-99.9,30.16,SSW,196,-999.0,2.0,-999,-99.99,,,-99.99,,2013-02-02 02:32:00,
2013-02-01 18:42:00,55.0,-99.9,30.16,SE,144,2.0,4.0,-999,-99.99,,,-99.99,,2013-02-02 02:42:00,
2013-02-01 18:52:00,54.0,-99.9,30.17,South,184,2.0,4.0,-999,-99.99,,,-99.99,,2013-02-02 02:52:00,
2013-02-01 19:02:00,54.0,-99.9,30.17,SW,219,-999.0,2.0,-999,-99.99,,,-99.99,,2013-02-02 03:02:00,
2013-02-01 19:11:00,55.0,-99.9,30.18,SW,218,2.0,7.0,-999,-99.99,,,-99.99,,2013-02-02 03:11:00,
2013-02-01 19:22:00,55.0,-99.9,30.17,WSW,245,3.0,4.0,-999,-99.99,,,-99.99,,2013-02-02 03:22:00,
2013-02-01 19:32:00,55.0,-99.9,30.19,SSE,155,4.0,5.0,-999,-99.99,,,-99.99,,2013-02-02 03:32:00,
2013-02-01 19:42:00,55.0,-99.9,30.19,South,185,3.0,4.0,-999,-99.99,,,-99.99,,2013-02-02 03:42:00,
2013-02-01 19:52:00,54.0,-99.9,30.19,SW,232,1.0,3.0,-999,-99.99,,,-99.99,,2013-02-02 03:52:00,
2013-02-01 20:02:00,53.0,-99.9,30.19,West,277,2.0,2.0,-999,-99.99,,,-99.99,,2013-02-02 04:02:00,
2013-02-01 20:11:00,53.0,-99.9,30.19,NNE,16,-999.0,1.0,-999,-99.99,,,-99.99,,2013-02-02 04:11:00,
2013-02-01 20:22:00,53.0,-99.9,30.18,ENE,64,-999.0,2.0,-999,-99.99,,,-99.99,,2013-02-02 04:22:00,
2013-02-01 20:33:00,53.0,-99.9,30.18,SW,218,1.0,2.0,-999,-99.99,,,-99.99,,2013-02-02 04:33:00,
2013-02-01 20:42:00,54.0,-99.9,30.19,SE,142,7.0,9.0,-999,-99.99,,,-99.99,,2013-02-02 04:42:00,
2013-02-01 20:52:00,54.0,-99.9,30.19,SE,131,8.0,11.0,-999,-99.99,,,-99.99,,2013-02-02 04:52:00,
2013-02-01 21:03:00,54.0,-99.9,30.20,SSE,150,5.0,7.0,-999,-99.99,,,-99.99,,2013-02-02 05:03:00,
2013-02-01 21:12:00,53.0,-99.9,30.20,SSE,158,9.0,13.0,-999,-99.99,,,-99.99,,2013-02-02 05:12:00,
2013-02-01 21:22:00,53.0,-99.9,30.20,SSE,152,7.0,11.0,-999,-99.99,,,-99.99,,2013-02-02 05:22:00,
2013-02-01 21:33:00,53.0,-99.9,30.20,SSE,160,6.0,10.0,-999,-99.99,,,-99.99,,2013-02-02 05:33:00,
2013-02-01 21:42:00,52.0,-99.9,30.21,ESE,122,6.0,9.0,-999,-99.99,,,-99.99,,2013-02-02 05:42:00,
2013-02-01 21:52:00,52.0,-99.9,30.21,SE,129,7.0,9.0,-999,-99.99,,,-99.99,,2013-02-02 05:52:00,
2013-02-01 22:02:00,50.0,-99.9,30.21,SE,137,8.0,10.0,-999,-99.99,,,-99.99,,2013-02-02 06:02:00,
2013-02-01 22:12:00,49.0,-99.9,30.21,SE,141,7.0,9.0,-999,-99.99,,,-99.99,,2013-02-02 06:12:00,
2013-02-01 22:22:00,49.0,-99.9,30.22,SE,146,6.0,11.0,-999,-99.99,,,-99.99,,2013-02-02 06:22:00,
2013-02-01 22:32:00,49.0,-99.9,30.22,SE,137,7.0,9.0,-999,-99.99,,,-99.99,,2013-02-02 06:32:00,
2013-02-01 22:42:00,49.0,-99.9,30.22,SE,145,7.0,10.0,-999,-99.99,,,-99.99,,2013-02-02 06:42:00,
2013-02-01 22:52:00,48.0,-99.9,30.22,SSE,147,7.0,10.0,-999,-99.99,,,-99.99,,2013-02-02 06:52:00,
2013-02-01 23:02:00,48.0,-99.9,30.22,ESE,117,5.0,10.0,-999,-99.99,,,-99.99,,2013-02-02 07:02:00,
2013-02-01 23:12:00,48.0,-99.9,30.23,SE,135,7.0,11.0,-999,-99.99,,,-99.99,,2013-02-02 07:12:00,
2013-02-01 23:21:00,49.0,-99.9,30.23,ESE,117,8.0,11.0,-999,-99.99,,,-99.99,,2013-02-02 07:21:00,
2013-02-01 23:32:00,48.0,-99.9,30.23,SE,124,7.0,12.0,-999,-99.99,,,-99.99,,2013-02-02 07:32:00,
2013-02-01 23:42:00,48.0,-99.9,30.24,ESE,119,6.0,11.0,-999,-99.99,,,-99.99,,2013-02-02 07:42:00,
2013-02-01 23:52:00,49.0,-99.9,30.24,ESE,114,9.0,15.0,-999,-99.99,,,-99.99,,2013-02-02 07:52:00,